FLOCK 4V-19 (46609 NORAD) Tracking and Keplerian Element Data

This shows tracking and keplerian element data for the satellite.

Feedback or suggestion? Click here.




ElementValue
Catalog46609
NameFLOCK 4V-19
Epoch Orbit799
Epoch Day336.20959326
Epoch Year2020
RAAN47.717
Inclination97.4544
Eccentricity0.0002116
Argument of Perigee273.3193
Mean Anonmoly86.7798
Mean Motion15.15889203
Decay Rate1.62E-05
L11 46609U 20061BH 20336.20959326 .00001620 00000-0 88056-4 0 9994
L22 46609 97.4544 47.7170 0002116 273.3193 86.7798 15.15889203 7996

Live tracking and technical data element details for FLOCK 4V-19 (NORAD 46609). FLOCK 4V-19 can be tracked NOW for your location showing map with azimuth and elevation plus other details from your city location.

Track the satellite on the map from your city or location and see movement details for azimuth, elevation, latitude, longitude, range, height, and movement on the map or in text.







IsCatalogInMostPopularTable: catalog: 46609, numindb: 12
Update: records affected: 1



GetName: 46609 FLOCK 4V-19

Hit Count: updated at: Tue, 01 Dec 2020 21:36:46 GMT